Grosse Ile, MI

7:50 PM EDT on April 23, 2017 (GMT -0400)
Grosse Ile Municipal

Weather History for KONZ - December, 2012

Change the Weather History Date:

Saturday, December 8, 2012

  Actual Average (KDTW) Record (KDTW)
Temperature  
Mean Temperature 38 °F -  
Max Temperature 42 °F 39 °F 66 °F (1966)
Min Temperature 35 °F 26 °F 0 °F (1977)
Degree Days  
Heating Degree Days 26    
Moisture  
Dew Point 36 °F    
Average Humidity 86    
Maximum Humidity 93    
Minimum Humidity 75    
Precipitation  
Precipitation 0.15 in - - ()
Sea Level Pressure  
Sea Level Pressure 29.93 in    
Wind  
Wind Speed 6 mph (NNE)    
Max Wind Speed 12 mph    
Max Gust Speed 13 mph    
Visibility 6 miles    
Events Rain    
Averages and records for this station are not official NWS values.
T = Trace of Precipitation, MM = Missing Value Source: NWS Daily Summary

Daily Weather History Graph

Daily Weather History Graph

Search for Another Location

Airport or City:

Trip Planner

Search our weather history database for the weather conditions in past years. The results will help you decide how hot, cold, wet, or windy it might be!

Date:

Astronomy

Dec. 08, 2012 Rise Set
Actual Time 7:48 AM EST 5:00 PM EST
Civil Twilight 7:17 AM EST 5:32 PM EST
Nautical Twilight 6:42 AM EST 6:07 PM EST
Astronomical Twilight 6:08 AM EST 6:41 PM EST
Moon 2:07 AM EST (12/8) 1:34 PM EST (12/8)
Length of Visible Light 10h 15m
Length of Day
9h 12m
Waning Crescent, 28% of the Moon is Illuminated
Dec 8
Waning Crescent
Dec 13
New
Dec 20
First Quarter
Dec 28
Full
Jan 4
Last Quarter

Hourly Weather History & Observations

Time (EST) Temp. Windchill Dew Point Humidity Pressure Visibility Wind Dir Wind Speed Gust Speed Precip Events Conditions
12:14 AM 41.0 °F 38.0 °F 39.2 °F 93% 29.86 in 1.5 mi NNE 4.6 mph - N/A   Light Drizzle
12:34 AM 41.0 °F 38.0 °F 39.2 °F 93% 29.85 in 1.8 mi NNE 4.6 mph - 0.01 in Rain Light Rain
12:54 AM 41.0 °F 39.0 °F 39.2 °F 93% 29.85 in 1.8 mi NE 3.5 mph - 0.01 in Rain Light Rain
1:14 AM 41.0 °F 39.0 °F 39.2 °F 93% 29.84 in 1.8 mi NE 3.5 mph - N/A Rain Rain
1:34 AM 41.0 °F 38.0 °F 39.2 °F 93% 29.84 in 1.8 mi NE 4.6 mph - 0.01 in Rain Rain
1:54 AM 41.0 °F 38.0 °F 39.2 °F 93% 29.83 in 1.8 mi NE 4.6 mph - 0.01 in Rain Light Rain
2:14 AM 41.0 °F 38.0 °F 39.2 °F 93% 29.84 in 1.8 mi NNE 4.6 mph - N/A Rain Light Rain
2:34 AM 41.0 °F 36.4 °F 39.2 °F 93% 29.83 in 2.0 mi NNE 6.9 mph - 0.01 in Rain Light Rain
2:54 AM 41.0 °F 36.4 °F 39.2 °F 93% 29.83 in 2.0 mi NNE 6.9 mph - 0.01 in Rain Rain
3:14 AM 41.0 °F 35.8 °F 39.2 °F 93% 29.81 in 1.8 mi NE 8.1 mph - 0.02 in Rain Light Rain
3:54 AM 41.0 °F 38.0 °F 39.2 °F 93% 29.81 in 2.0 mi NE 4.6 mph - 0.02 in Rain Light Rain
4:14 AM 42.8 °F 39.3 °F 39.2 °F 87% 29.81 in 2.0 mi NE 5.8 mph - N/A Rain Light Rain
4:34 AM 42.8 °F 41.1 °F 39.2 °F 87% 29.81 in 2.0 mi NNE 3.5 mph - 0.02 in Rain Light Rain
4:54 AM 42.8 °F 39.3 °F 39.2 °F 87% 29.81 in 2.0 mi NNE 5.8 mph - 0.02 in Rain Light Rain
5:14 AM 42.8 °F 40.1 °F 39.2 °F 87% 29.81 in 2.0 mi NNE 4.6 mph - N/A Rain Light Rain
5:34 AM 42.8 °F - 39.2 °F 87% 29.81 in 2.0 mi Calm Calm - 0.01 in Rain Rain
5:54 AM 42.8 °F 40.1 °F 39.2 °F 87% 29.80 in 2.5 mi NNE 4.6 mph - 0.02 in Rain Light Rain
6:15 AM 42.8 °F 40.1 °F 39.2 °F 87% 29.80 in 2.5 mi North 4.6 mph - N/A Rain Light Rain
6:34 AM 42.8 °F 41.1 °F 39.2 °F 87% 29.81 in 2.5 mi NNE 3.5 mph - N/A   Overcast
6:54 AM 42.8 °F 40.1 °F 39.2 °F 87% 29.82 in 2.5 mi North 4.6 mph - N/A   Overcast
7:14 AM 42.8 °F 39.3 °F 39.2 °F 87% 29.82 in 3.0 mi North 5.8 mph - N/A   Overcast
7:34 AM 42.8 °F 40.1 °F 39.2 °F 87% 29.82 in 4.0 mi North 4.6 mph - N/A   Overcast
7:54 AM 42.8 °F 41.1 °F 39.2 °F 87% 29.83 in 3.0 mi NNE 3.5 mph - N/A Rain Light Rain
8:14 AM 42.8 °F 41.1 °F 39.2 °F 87% 29.81 in 2.5 mi ENE 3.5 mph - 0.01 in Rain Rain
8:34 AM 42.8 °F 41.1 °F 39.2 °F 87% 29.83 in 2.5 mi NE 3.5 mph - 0.02 in Rain Rain
8:54 AM 42.8 °F 40.1 °F 39.2 °F 87% 29.82 in 2.5 mi NE 4.6 mph - 0.02 in   Drizzle
9:14 AM 42.8 °F 40.1 °F 39.2 °F 87% 29.84 in 2.5 mi North 4.6 mph - N/A   Overcast
9:34 AM 42.8 °F 38.6 °F 39.2 °F 87% 29.84 in 2.5 mi NE 6.9 mph - N/A   Overcast
9:54 AM 42.8 °F 40.1 °F 39.2 °F 87% 29.85 in 2.5 mi North 4.6 mph - N/A   Overcast
10:14 AM 42.8 °F 37.5 °F 39.2 °F 87% 29.87 in 3.0 mi NNW 9.2 mph - N/A Rain Rain
10:34 AM 41.0 °F 34.7 °F 39.2 °F 93% 29.87 in 2.0 mi North 10.4 mph - 0.02 in Rain Rain
10:54 AM 41.0 °F 35.8 °F 37.4 °F 87% 29.89 in 4.0 mi NNW 8.1 mph - 0.02 in Rain Light Rain
11:14 AM 39.2 °F 33.0 °F 37.4 °F 93% 29.88 in 4.0 mi North 9.2 mph - 0.01 in Rain Light Rain
11:34 AM 41.0 °F 35.2 °F 37.4 °F 87% 29.88 in 7.0 mi North 9.2 mph - 0.02 in   Overcast
11:54 AM 39.2 °F 33.0 °F 37.4 °F 93% 29.88 in 7.0 mi North 9.2 mph - 0.02 in   Overcast
12:14 PM 39.2 °F 32.0 °F 35.6 °F 87% 29.88 in 7.0 mi North 11.5 mph - N/A Rain Light Rain
12:35 PM 37.4 °F 29.8 °F 35.6 °F 93% 29.90 in 10.0 mi North 11.5 mph - N/A   Overcast
12:54 PM 37.4 °F 30.8 °F 35.6 °F 93% 29.89 in 10.0 mi North 9.2 mph 12.7 mph N/A   Overcast
1:14 PM 37.4 °F 30.8 °F 35.6 °F 93% 29.90 in 7.0 mi North 9.2 mph - N/A   Overcast
1:34 PM 37.4 °F 30.8 °F 35.6 °F 93% 29.90 in 10.0 mi North 9.2 mph - N/A   Overcast
1:54 PM 37.4 °F 29.8 °F 33.8 °F 87% 29.91 in 10.0 mi North 11.5 mph - N/A   Overcast
2:14 PM 37.4 °F 30.3 °F 33.8 °F 87% 29.92 in 10.0 mi North 10.4 mph - N/A   Overcast
2:34 PM 39.2 °F 33.0 °F 35.6 °F 87% 29.93 in 10.0 mi North 9.2 mph - N/A   Overcast
2:54 PM 39.2 °F 34.2 °F 33.8 °F 81% 29.94 in 10.0 mi North 6.9 mph - N/A   Overcast
3:14 PM 39.2 °F 33.0 °F 33.8 °F 81% 29.96 in 10.0 mi North 9.2 mph - N/A   Overcast
3:34 PM 39.2 °F 33.6 °F 33.8 °F 81% 29.97 in 10.0 mi North 8.1 mph - N/A   Overcast
3:54 PM 39.2 °F 33.6 °F 33.8 °F 81% 29.98 in 10.0 mi NNW 8.1 mph - N/A   Overcast
4:14 PM 39.2 °F 33.0 °F 33.8 °F 81% 29.99 in 10.0 mi North 9.2 mph - N/A   Overcast
4:34 PM 39.2 °F 35.0 °F 33.8 °F 81% 29.99 in 10.0 mi North 5.8 mph - N/A   Overcast
4:54 PM 39.2 °F 35.0 °F 33.8 °F 81% 30.01 in 10.0 mi NNW 5.8 mph - N/A   Overcast
5:15 PM 39.2 °F 35.9 °F 33.8 °F 81% 30.02 in 10.0 mi NNW 4.6 mph - N/A   Overcast
5:34 PM 39.2 °F 35.9 °F 33.8 °F 81% 30.03 in 10.0 mi NNW 4.6 mph - N/A   Overcast
5:54 PM 37.4 °F 32.8 °F 33.8 °F 87% 30.04 in 10.0 mi North 5.8 mph - N/A   Overcast
6:14 PM 37.4 °F 32.1 °F 33.8 °F 87% 30.05 in 10.0 mi North 6.9 mph - N/A   Overcast
6:34 PM 37.4 °F 32.1 °F 33.8 °F 87% 30.05 in 10.0 mi North 6.9 mph - N/A   Overcast
6:54 PM 37.4 °F 31.4 °F 33.8 °F 87% 30.07 in 10.0 mi North 8.1 mph - N/A   Overcast
7:14 PM 37.4 °F 31.4 °F 32.0 °F 81% 30.08 in 10.0 mi North 8.1 mph - N/A   Overcast
7:34 PM 37.4 °F 31.4 °F 30.2 °F 75% 30.09 in 10.0 mi NNE 8.1 mph - N/A   Overcast
8:14 PM 37.4 °F 31.4 °F 30.2 °F 75% 30.11 in 10.0 mi NNE 8.1 mph - N/A   Overcast
8:34 PM 37.4 °F 31.4 °F 30.2 °F 75% 30.12 in 10.0 mi North 8.1 mph - N/A   Overcast
8:54 PM 37.4 °F 32.1 °F 30.2 °F 75% 30.11 in 10.0 mi NNE 6.9 mph - N/A   Overcast
9:14 PM 37.4 °F 29.8 °F 30.2 °F 75% 30.12 in 10.0 mi NNE 11.5 mph - N/A   Overcast
9:34 PM 35.6 °F 30.7 °F 30.2 °F 81% 30.13 in 10.0 mi North 5.8 mph - N/A   Overcast
9:54 PM 35.6 °F 30.7 °F 30.2 °F 81% 30.13 in 10.0 mi NNE 5.8 mph - N/A   Overcast
10:14 PM 35.6 °F 31.7 °F 30.2 °F 81% 30.13 in 10.0 mi NNE 4.6 mph - N/A   Overcast
10:34 PM 35.6 °F 31.7 °F 30.2 °F 81% 30.15 in 10.0 mi North 4.6 mph - N/A   Overcast
10:54 PM 35.6 °F 31.7 °F 30.2 °F 81% 30.15 in 10.0 mi North 4.6 mph - N/A   Overcast
11:14 PM 35.6 °F 31.7 °F 30.2 °F 81% 30.14 in 10.0 mi NNE 4.6 mph - N/A   Overcast
11:35 PM 35.6 °F 29.9 °F 30.2 °F 81% 30.15 in 10.0 mi NNE 6.9 mph - N/A   Overcast
11:54 PM 35.6 °F 30.7 °F 30.2 °F 81% 30.16 in 10.0 mi NNE 5.8 mph - N/A   Overcast